TimeCDT,TemperatureF,Dew PointF,Humidity,Sea Level PressureIn,VisibilityMPH,Wind Direction,Wind SpeedMPH,Gust SpeedMPH,PrecipitationIn,Events,Conditions,WindDirDegrees,DateUTC
12:52 AM,51.1,46.9,86,30.11,4.0,North,10.4,-,N/A,,Overcast,350,2013-05-06 05:52:00
1:52 AM,51.1,46.9,86,30.09,5.0,NNW,10.4,-,N/A,,Overcast,340,2013-05-06 06:52:00
2:43 AM,51.8,48.2,88,30.08,5.0,North,11.5,-,N/A,,Overcast,350,2013-05-06 07:43:00
2:52 AM,51.1,48.0,89,30.09,6.0,North,10.4,-,N/A,,Overcast,360,2013-05-06 07:52:00
3:52 AM,51.1,46.9,86,30.08,5.0,NNW,12.7,-,N/A,,Overcast,340,2013-05-06 08:52:00
4:52 AM,51.1,46.9,86,30.09,5.0,North,10.4,-,N/A,,Overcast,350,2013-05-06 09:52:00
5:52 AM,51.1,48.0,89,30.10,5.0,NNW,8.1,-,N/A,,Overcast,340,2013-05-06 10:52:00
6:52 AM,51.1,48.0,89,30.12,4.0,NNW,5.8,-,N/A,,Overcast,340,2013-05-06 11:52:00
7:52 AM,52.0,48.0,86,30.12,4.0,NNW,8.1,-,N/A,,Overcast,340,2013-05-06 12:52:00
8:52 AM,53.1,48.9,86,30.13,4.0,NNW,10.4,-,N/A,,Overcast,330,2013-05-06 13:52:00
9:52 AM,54.0,48.9,83,30.13,4.0,NNW,8.1,-,N/A,,Haze,330,2013-05-06 14:52:00
10:52 AM,55.0,50.0,83,30.13,5.0,NNW,8.1,-,N/A,,Haze,340,2013-05-06 15:52:00
11:14 AM,57.2,51.8,82,30.13,5.0,North,10.4,-,N/A,,Haze,360,2013-05-06 16:14:00
11:52 AM,57.0,51.1,81,30.13,5.0,NNW,9.2,-,N/A,,Haze,340,2013-05-06 16:52:00
12:52 PM,57.9,51.1,78,30.13,5.0,NW,8.1,-,N/A,,Haze,320,2013-05-06 17:52:00
1:52 PM,60.1,52.0,75,30.11,6.0,NNW,6.9,-,N/A,,Haze,340,2013-05-06 18:52:00
2:05 PM,60.8,51.8,72,30.11,6.0,NNW,6.9,-,N/A,,Haze,330,2013-05-06 19:05:00
2:52 PM,64.0,53.1,67,30.09,7.0,NW,9.2,-,N/A,,Mostly Cloudy,320,2013-05-06 19:52:00
3:12 PM,66.2,53.6,64,30.08,8.0,NNW,8.1,-,N/A,,Scattered Clouds,330,2013-05-06 20:12:00
3:52 PM,66.9,54.0,63,30.05,8.0,North,8.1,-,N/A,,Partly Cloudy,350,2013-05-06 20:52:00
4:52 PM,66.9,53.1,61,30.04,8.0,North,6.9,-,N/A,,Clear,350,2013-05-06 21:52:00
5:52 PM,68.0,53.1,59,30.03,8.0,North,6.9,-,N/A,,Clear,360,2013-05-06 22:52:00
6:52 PM,66.9,54.0,63,30.04,8.0,NNW,6.9,-,N/A,,Clear,340,2013-05-06 23:52:00
7:52 PM,63.0,53.1,70,30.04,8.0,NE,4.6,-,N/A,,Clear,40,2013-05-07 00:52:00
8:52 PM,54.0,50.0,86,30.06,7.0,NNW,4.6,-,N/A,,Clear,340,2013-05-07 01:52:00
9:52 PM,52.0,50.0,93,30.08,6.0,Calm,Calm,-,N/A,,Clear,0,2013-05-07 02:52:00
10:52 PM,48.9,48.0,97,30.09,5.0,NW,4.6,-,N/A,,Clear,320,2013-05-07 03:52:00
11:52 PM,48.0,46.0,93,30.09,2.5,NNW,4.6,-,N/A,,Clear,330,2013-05-07 04:52:00